AO-07 1 07530U 74089B 15365.52515600 -.00000020 00000-0 15170-3 0 9997 2 07530 101.5508 335.5577 0011733 279.8438 192.8807 12.53618755881980 FO-29 1 24278U 96046B 15364.83461248 -.00000005 00000-0 34545-4 0 9994 2 24278 98.5714 307.2943 0349390 281.2390 74.9678 13.53062649956617 SO-33 1 25509U 98061B 15364.94033169 .00000247 00000-0 37229-4 0 9999 2 25509 031.4312 215.7852 0347451 358.5562 001.4047 14.30112905898136 RS-22 1 27939U 03042A 15365.78726109 .00000312 00000-0 64911-4 0 9990 2 27939 97.8598 159.2004 0013839 117.5288 242.7326 14.66275235655143 HO-68 1 36122U 09072B 15365.47815561 -.00000059 00000-0 -43517-4 0 9999 2 36122 100.1685 43.0061 0007710 30.1234 330.0327 13.16331530290419 AO-73 1 39444U 13066AE 15365.10940825 .00000849 00000-0 11388-3 0 9994 2 39444 97.7061 60.4318 0058609 212.1575 147.6059 14.80752446112556 EO-79 1 40025U 14033R 15365.52709973 .00001182 00000-0 13589-3 0 9995 2 40025 97.9397 265.9424 0011328 257.2474 102.7476 14.87679185 83122 XW-2A 1 40903U 15049E 15365.87760568 .00004848 00000-0 14632-3 0 9995 2 40903 97.4520 14.1334 0017428 23.0222 95.7536 15.34622580 15720 XW-2C 1 40906U 15049H 15365.57496132 .00002282 00000-0 13344-3 0 9997 2 40906 97.4551 11.3707 0014261 260.5766 225.2695 15.12797631 15501 LILACSAT-2 1 40908U 15049K 15365.55023182 .00000812 00000-0 50872-4 0 9993 2 40908 97.4609 11.3340 0014882 251.5021 233.3273 15.12050001 15496 XW-2E 1 40909U 15049L 15365.48781297 .00004169 00000-0 23695-3 0 9995 2 40909 97.4541 11.3443 0013447 263.9877 249.9537 15.13360436 15491 UO-11 1 14781U 84021B 15364.91413376 .00000264 00000-0 39181-4 0 9997 2 14781 097.7754 056.8766 0009437 141.2750 218.9142 14.82629340690172 AO-16 1 20439U 90005D 15365.10305884 .00000063 00000-0 39486-4 0 9994 2 20439 98.5598 298.5698 0009907 302.9167 126.5994 14.32599243354936 LO-19 1 20442U 90005G 15364.85969202 .00000086 00000-0 47583-4 0 9991 2 20442 098.5302 297.2863 0010710 289.2505 070.7520 14.32787911355049 AO-27 1 22825U 93061C 15365.10139380 .00000051 00000-0 37407-4 0 9994 2 22825 98.7366 315.5234 0009523 91.9559 268.2713 14.29928685161078 IO-26 1 22826U 93061D 15365.46384211 .00000068 00000-0 43560-4 0 9994 2 22826 98.7310 316.0307 0010043 83.4099 276.8226 14.30250388161286 GO-32 1 25397U 98043D 15365.38644430 .00000030 00000-0 31983-4 0 9993 2 25397 98.5471 309.8968 0002355 100.7381 259.4064 14.23576871907842 NO-44 1 26931U 01043C 15365.47699674 .00000032 00000-0 44194-4 0 9992 2 26931 67.0515 28.1571 0007320 275.3951 84.6315 14.30374377744017 SO-50 1 27607U 02058C 15365.21816985 .00000296 00000-0 62542-4 0 9997 2 27607 64.5559 317.0579 0080821 250.8155 108.4188 14.75004350700348 CO-55 1 27844U 03031E 15365.43186823 .00000154 00000-0 89704-4 0 9999 2 27844 98.6943 11.1385 0010766 91.0075 269.2336 14.21895595648465 CO-57 1 27848U 03031J 15364.93829176 .00000092 00000-0 62019-4 0 9993 2 27848 098.7041 010.6604 0010671 099.4233 260.8151 14.21529091648265 AO-51 1 28375U 04025K 15364.85973559 .00000121 00000-0 48614-4 0 9997 2 28375 98.3137 299.8494 0083894 95.5835 265.4930 14.41736040604830 CP3 1 31129U 07012N 15364.87719832 .00000658 00000-0 14995-3 0 9990 2 31129 98.0088 322.4255 0097421 61.2296 299.8646 14.56102836461734 CO-65 1 32785U 08021C 15365.85830778 .00000894 00000-0 10470-3 0 9998 2 32785 97.6246 41.9050 0014461 129.9423 230.3066 14.87308197415600 PRISM 1 33493U 09002B 15365.43462299 .00002065 00000-0 19773-3 0 9995 2 33493 98.2329 212.4320 0017092 43.7487 316.4993 14.94294168376024 SOHLA-1 1 33496U 09002E 15365.44175756 .00000250 00000-0 48591-4 0 9993 2 33496 98.2366 135.3417 0005110 254.6972 146.6290 14.71506828372188 TISAT-1 1 36799U 10035E 15365.78350584 .00001808 00000-0 19664-3 0 9999 2 36799 98.0222 108.6499 0011523 279.5957 80.3958 14.89312826296354 STUDSAT 1 36801U 10035G 15364.84026753 .00017472 00000-0 83430-3 0 9993 2 36801 098.0785 136.3918 0005660 186.7838 173.3319 15.19109742297628 ALMASAT-1 1 38078U 12006B 15365.26832667 .00021391 34797-5 32790-3 0 9990 2 38078 69.4538 99.1862 0429348 341.8999 16.7242 14.91679391204290 CUBEBUG-1 1 39153U 13018D 15365.24010580 .00000843 00000-0 11933-3 0 9999 2 39153 98.0075 88.9878 0016576 340.5194 19.5382 14.79639724144617 ESTCUBE-1 1 39161U 13021C 15365.83007832 .00000273 00000-0 51976-4 0 9992 2 39161 98.0607 86.9483 0010555 51.7839 308.4304 14.71478910142303 DUCHIFAT-1 1 40021U 14033M 15365.28554800 .00001831 00000-0 20133-3 0 9995 2 40021 97.9420 266.3961 0011939 257.9348 102.0531 14.88821469 83121 NANOSATCBR1 1 40024U 14033Q 15365.47158830 .00001535 00000-0 17201-3 0 9995 2 40024 97.9399 266.1801 0011143 256.5848 103.4127 14.88298931 83136 DTUSAT-2 1 40030U 14033W 15365.46707469 .00001185 00000-0 13738-3 0 9991 2 40030 97.9379 265.4719 0010778 250.1248 109.8807 14.87316002 83097 ANTELSAT 1 40034U 14033AA 15365.52493096 .00000533 00000-0 88487-4 0 9990 2 40034 97.9206 253.0092 0058756 206.5267 153.2845 14.73141427 82345 MET-2/21 1 22782U 93055A 15365.77665352 .00000024 00000-0 78163-5 0 9990 2 22782 82.5501 86.8884 0023573 125.4555 351.7626 13.83783738127925 OKEAN-4 1 23317U 94066A 15364.88601350 .00000541 00000-0 57461-4 0 9998 2 23317 082.5387 260.6194 0021178 040.8749 090.3046 14.86990718146534 NOAA-14 1 23455U 94089A 15365.55212817 .00000011 00000-0 28341-4 0 9994 2 23455 98.7381 82.8108 0008627 234.1403 239.8449 14.14064237 83422 NOAA-15 1 25338U 98030A 15365.58002723 .00000081 00000-0 53258-4 0 9994 2 25338 98.7800 4.4255 0009967 320.1900 39.8547 14.25691018916965 RESURS 1 25394U 98043A 15364.88911385 .00000003 00000-0 19602-4 0 9994 2 25394 098.4937 313.1376 0002448 071.9840 351.7857 14.24465987908267 FENGYUN1 1 25730U 99025A 15364.86801898 .00001498 00000-0 81364-3 0 9996 2 25730 098.9620 329.8790 0019769 302.6516 086.6659 14.13813408856806 OKEAN-0 1 25860U 99039A 15364.96060008 .00000273 00000-0 46986-4 0 9998 2 25860 98.1219 333.6542 0001835 79.1144 333.7500 14.76245428885018 NOAA-16 1 26536U 00055A 15365.57071513 -.00000121 00000-0 -40825-4 0 9990 2 26536 98.9173 71.1262 0011217 37.0596 323.1361 14.13130003787548 NOAA-17 1 27453U 02032A 15365.53899675 .00000027 00000-0 29057-4 0 9996 2 27453 98.3627 341.9814 0011131 329.0633 30.9891 14.24916190702760 NOAA-18 1 28654U 05018A 15365.58892722 .00000044 00000-0 49525-4 0 9999 2 28654 99.1948 3.1618 0015020 125.5006 234.7568 14.12258620546936 NOAA-19 1 33591U 09005A 15365.51619066 .00000193 00000-0 13031-3 0 9993 2 33591 99.0176 316.1218 0013717 338.2265 21.8321 14.12022818355330 HUBBLE 1 20580U 90037B 15365.48043981 .00001523 00000-0 85166-4 0 9992 2 20580 28.4706 292.5716 0002849 192.4576 153.0328 15.08033793209612 ISS 1 25544U 98067A 15365.80622685 .00005562 00000-0 87795-4 0 9995 2 25544 51.6433 177.8156 0008302 347.7347 214.1694 15.55187214978782 CO-58 1 28895U 05043F 15365.17852331 .00000374 00000-0 81449-4 0 9998 2 28895 97.8210 182.7228 0017746 37.2381 323.0048 14.63041703542392 FALCON 1 30776U 07006E 15364.94108832 .00005076 00000-0 18691-3 0 9996 2 30776 035.4252 205.2289 0001380 265.3070 094.7496 15.27313570486370 MAST 1 31126U 07012K 15365.47378337 .00000485 00000-0 11360-3 0 9996 2 31126 97.9893 324.8591 0091647 41.2486 319.5590 14.56252571462196 CAPE1 1 31130U 07012P 15364.84725641 .00000610 00000-0 14081-3 0 9998 2 31130 98.0106 321.8097 0098147 63.5676 297.5552 14.55758045461499 COMPASS 1 32787U 08021E 15365.16260789 .00001130 00000-0 11805-3 0 9990 2 32787 97.6265 46.5956 0014252 116.1495 244.1192 14.91519647415864 AAUSAT2 1 32788U 08021F 15365.08032107 .00001623 00000-0 16260-3 0 9990 2 32788 97.6273 48.3755 0013678 112.4739 247.7931 14.92660823415967 DO-64 1 32789U 08021G 15364.92089189 .00004141 00000-0 32127-3 0 9993 2 32789 097.6259 062.0506 0012743 110.8722 249.3869 15.01856188416483 CO-66 1 32791U 08021J 15365.18067130 .00000921 00000-0 10243-3 0 9994 2 32791 97.6263 43.8455 0014987 123.8335 236.4312 14.89389652415635 RS-30 1 32953U 08025A 15365.42556433 .00000010 00000-0 -13620-7 0 9990 2 32953 82.5021 211.5818 0019325 11.7048 348.4479 12.43066180345113 METEOR-M 1 35865U 09049A 15365.53478336 -.00000044 00000-0 -83943-6 0 9991 2 35865 98.4774 38.5580 0001349 253.6046 278.7222 14.22055100326258 RS-38 1 35869U 09049E 15365.49773945 .00000024 00000-0 29494-4 0 9999 2 35869 98.4673 38.0543 0003535 258.7079 101.3702 14.22323903326304 JUGNU 1 37839U 11058B 15364.62071084 .00000354 00000-0 47372-4 0 9991 2 37839 019.9615 091.6307 0019172 051.2788 088.0539 14.12513634217913 SRMSAT 1 37841U 11058D 15364.69989836 .00000334 00000-0 38696-4 0 9991 2 37841 019.9712 121.8634 0011914 331.4609 166.3964 14.10517479217634 RAX-2 1 37853U 11061D 15364.82582709 .00003854 00000-0 23214-3 0 9990 2 37853 101.7123 312.7787 0188585 220.9248 137.7676 14.98349106226529 AUBIESAT 1 37854U 11061E 15364.91096833 .00002432 00000-0 14617-3 0 9997 2 37854 101.6971 317.3241 0177876 212.6747 146.3359 15.00600667226248 HRBE 1 37855U 11061F 15364.80749182 .00004429 00000-0 25257-3 0 9998 2 37855 101.7159 315.3544 0192132 216.4648 142.3349 14.99532578226591 HORYU-2 1 38340U 12025D 15365.17946469 .00000652 00000-0 10561-3 0 9993 2 38340 98.3379 340.5118 0011546 183.9180 176.1939 14.74753097194566 RS-40 1 38735U 12041C 15365.29937548 .00000040 00000-0 21992-3 0 9991 2 38735 82.4768 297.0661 0017634 108.4393 251.8602 12.42570207155390 PROITERES 1 38756U 12047B 15365.48109422 .00000490 00000-0 78765-4 0 9993 2 38756 98.2281 108.2256 0012922 32.8032 327.3979 14.76054600178109 BEESAT-3 1 39134U 13015E 15365.16039581 .00004236 00000-0 23906-3 0 9991 2 39134 64.8711 146.3146 0016842 232.2693 127.6906 15.14413849148501 BEESAT-2 1 39136U 13015G 15364.79021696 .00004826 00000-0 28653-3 0 9998 2 39136 64.8720 151.6772 0016888 230.1738 129.7900 15.12385701148379 ZACUBE-1 1 39417U 13066B 15364.88292098 .00000711 00000-0 97736-4 0 9990 2 39417 097.7053 059.7903 0059231 214.3239 145.4141 14.80137474113727 TRITON-1 1 39427U 13066M 15364.74104353 .00000715 00000-0 12423-3 0 9995 2 39427 097.6897 043.6802 0113807 259.1139 099.7243 14.66981662112485 DELFIN3XT 1 39428U 13066N 15364.76386283 .00001307 00000-0 22250-3 0 9999 2 39428 97.6918 41.7034 0121878 265.1381 93.5900 14.65947191112535 GOMX-1 1 39430U 13066Q 15365.48740641 .00000828 00000-0 16181-3 0 9997 2 39430 97.6854 34.1451 0151607 288.0462 70.4261 14.58389913112137 LO-74 1 39440U 13066AA 15365.10500080 .00000642 00000-0 98240-4 0 9999 2 39440 97.6987 53.6572 0080499 230.4500 128.9579 14.74920460113351 PUCPSAT-1 1 39442U 13066AC 15365.19635680 .00001174 00000-0 12861-3 0 9990 2 39442 97.7182 70.5488 0032488 189.7177 170.3416 14.89272202113188 SPROUT 1 39770U 14029E 15364.77588151 .00002588 00000-0 31198-3 0 9991 2 39770 97.8729 99.0322 0008319 279.0733 80.9530 14.84681715 86797 POPSAT-HIP1 1 40028U 14033U 15365.51501673 .00000309 00000-0 40200-4 0 9995 2 40028 97.9405 266.0559 0012831 255.2100 104.7611 14.87559862 83111 EO-80 1 40032U 14033Y 15365.28362406 .00001198 00000-0 13911-3 0 9998 2 40032 97.9388 265.2993 0010752 250.9704 109.0348 14.87245515 83067 VELOX-1 1 40057U 14034E 15365.53085471 .00001332 00000-0 19944-3 0 9990 2 40057 98.2040 86.7926 0010374 333.1647 26.8999 14.76371554 80993 DAURIA DX 1 1 40071U 14037C 15365.54220159 .00000321 00000-0 49268-4 0 9994 2 40071 98.3406 84.9208 0007825 334.3870 25.6972 14.80655700 79996 UKUBE-1 1 40074U 14037F 15365.52398420 .00001396 00000-0 18002-3 0 9996 2 40074 98.3428 86.3602 0004124 345.6734 14.4318 14.82735630 80074 HODOYOSHI-1 1 40299U 14070B 15365.52103800 .00002559 00000-0 11986-3 0 9994 2 40299 97.4431 84.5957 0014622 156.6899 329.2394 15.20537509 63795 CHUBUSAT-1 1 40300U 14070C 15365.56060509 .00002462 00000-0 12037-3 0 9990 2 40300 97.4397 83.3361 0022201 163.3549 310.4208 15.18962566 63725 QSAT-EOS 1 40301U 14070D 15365.54926227 .00004465 00000-0 21138-3 0 9994 2 40301 97.4339 82.5417 0030778 164.8446 309.2802 15.19436353 63687 TSUBAME 1 40302U 14070E 15365.54175243 .00002294 00000-0 12602-3 0 9993 2 40302 97.4314 80.0048 0041966 173.2916 300.9751 15.14362380 63528 FIREBIRD FU3 1 40377U 15003B 15365.79586777 .00006130 00000-0 29109-3 0 9990 2 40377 99.0934 75.9799 0149468 325.3872 33.7691 15.10344377 50341 FIREBIRD FU4 1 40378U 15003C 15365.79310722 .00005967 00000-0 28322-3 0 9999 2 40378 99.0934 75.9855 0149732 325.3491 33.8046 15.10347394 50343 GRIFEX 1 40379U 15003D 15365.82227920 .00005098 00000-0 24988-3 0 9990 2 40379 99.0941 75.6265 0152484 327.4940 31.6962 15.09076677 50326 LAMBDA-SAT 1 40458U 98067GB 15136.30676273 .20783109 12527-4 14817-2 0 9995 2 40458 051.6075 233.7697 0010355 318.5347 043.1720 16.39926603 21161 NO-84 1 40654U 15025X 15365.49198584 .00010846 00000-0 25592-3 0 02303 2 40654 054.9919 080.7517 0226453 015.0668 345.6855 15.20099339034110 NO-83 1 40655U 15025X 15365.50388661 .00013832 00000-0 31121-3 0 02328 2 40655 054.9828 078.8314 0216285 015.8125 344.9398 15.22756596034145 DEORBITSAIL 1 40719U 15032E 15364.94014548 .00001140 00000-0 17632-3 0 9994 2 40719 098.0355 252.8995 0018112 061.7067 298.5967 14.75110666025531 NUDT-PHONESAT 1 40900U 15049B 15365.40261230 .00006852 00000-0 37133-3 0 9991 2 40900 97.4462 11.3358 0014230 284.6208 181.7437 15.14826726 15502 XW-2D 1 40907U 15049J 15365.44750380 .00002939 00000-0 17088-3 0 9990 2 40907 97.4509 11.1930 0013665 260.1689 236.4717 15.12776618 15486 XW-2F 1 40910U 15049M 15365.57978271 .00003607 00000-0 20806-3 0 9994 2 40910 97.4555 11.3622 0014836 257.6902 228.8831 15.12899974 15394 XW-2B 1 40911U 15049N 15365.57548532 .00002813 00000-0 16367-3 0 9993 2 40911 97.4568 11.3868 0013558 258.8174 221.3744 15.12784237 15403 DCBB 1 40912U 15049P 15365.52645355 .00003847 00000-0 21066-3 0 9990 2 40912 97.4548 11.5922 0015425 254.8123 232.1060 15.14717482 15412 TW-1C 1 40926U 15051B 15365.71826351 .00009903 00000-0 31731-3 0 9995 2 40926 97.2963 39.7179 0014373 296.2281 202.4469 15.32466983 14923 TW-1A 1 40928U 15051D 15365.55120806 .00006365 00000-0 21239-3 0 9992 2 40928 97.2905 39.4143 0013813 314.3293 203.1997 15.31317045 14895 IO-86 1 40931U 15052B 15365.20146366 .00001071 00000-0 60587-4 0 9997 2 40931 6.0041 79.7948 0013223 250.4870 109.3772 14.76404595 13919 AAUSat-5 1 40948U 98067GZ 15365.72348557 .00113645 00000-0 94925-3 0 9998 2 40948 51.6364 173.9257 0006786 282.6674 77.3564 15.69153271 13611 GomX-3 1 40949U 98067HA 15365.70619161 .00061340 00000-0 65436-3 0 9998 2 40949 51.6392 175.3273 0005674 302.7867 57.2580 15.63333997 13591 LQSat 1 40958U 15057A 15365.82664198 -.00000101 00000-0 -78551-5 0 9993 2 40958 98.0320 77.8050 0017558 336.9107 23.1284 14.72780203 12605 AO-85 1 40967U 15058D 15363.38242379 .00002253 00000-0 24809-3 0 00855 2 40967 064.7803 043.6761 0216948 257.3619 100.3083 14.74602293011944 ATHENOXAT-1 1 41168U 15077C 15365.52626417 .00004270 00000-0 22412-3 0 9990 2 41168 14.9891 100.7175 0012777 192.0396 270.2919 15.08587960 2235 /EX
